Temperature
6 6 6 5 5 5 5 5 4 4 4 4 4 3 3 3 3 2 2 1 1 1 1 0 -0 -0 -1 -1 -1 -1 -2 -2 -2 -1 -0 -0 -1 -1 -1 -2 -1 -1 -1
6 5 5 5 5 5 4 4 4 4 3 3 3 2 2 2 2 1 1 0 -0 -0 -1 -1 -1 -1 -2 -2 -2 -2 -2 -2 -2 -2 -1 -1 -1 -2 -2 -2 -2 -2 -2
5 5 5 4 4 4 4 4 3 3 3 2 2 1 1 1 1 0 -0 -1 -1 -1 -2 -2 -2 -2 -2 -2 -3 -3 -3 -3 -3 -3 -2 -2 -2 -2 -3 -3 -3 -3 -3
5 4 4 4 4 3 3 3 3 2 2 1 1 1 0 0 -0 -1 -1 -2 -2 -2 -3 -3 -3 -3 -3 -3 -3 -3 -3 -3 -3 -3 -3 -3 -3 -3 -3 -4 -4 -4 -4
4 4 3 3 3 3 3 2 2 2 1 1 0 -0 -1 -1 -1 -2 -2 -3 -3 -3 -4 -4 -4 -4 -4 -3 -3 -3 -3 -3 -3 -3 -3 -3 -3 -3 -3 -4 -4 -4 -4
3 3 3 3 2 2 2 2 1 0 -0 -1 -1 -1 -2 -2 -2 -3 -4 -4 -4 -4 -4 -4 -4 -4 -4 -4 -3 -3 -3 -3 -3 -3 -3 -3 -3 -3 -3 -4 -4 -4 -4
3 3 2 2 1 1 1 0 -0 -1 -1 -2 -2 -2 -3 -3 -3 -4 -4 -5 -5 -5 -5 -4 -4 -4 -4 -4 -4 -4 -4 -4 -3 -3 -3 -3 -3 -3 -3 -4 -4 -4 -4
2 2 1 1 1 0 -0 -1 -1 -2 -2 -3 -3 -3 -4 -3 -4 -4 -5 -5 -5 -5 -5 -5 -5 -4 -4 -4 -4 -4 -4 -4 -4 -4 -4 -4 -4 -4 -4 -4 -4 -4 -4
1 1 0 -0 -1 -1 -1 -2 -2 -3 -3 -3 -4 -4 -4 -4 -4 -5 -5 -5 -5 -5 -5 -5 -5 -4 -4 -4 -4 -4 -4 -4 -4 -4 -4 -4 -4 -4 -4 -4 -4 -4 -5
1 0 -0 -1 -1 -2 -2 -2 -3 -3 -4 -4 -5 -5 -5 -5 -5 -5 -6 -6 -5 -5 -5 -5 -5 -4 -4 -4 -4 -4 -4 -4 -4 -4 -4 -4 -4 -4 -4 -4 -4 -4 -4
-0 -0 -1 -1 -2 -2 -3 -3 -4 -4 -5 -5 -6 -6 -6 -6 -6 -6 -6 -6 -5 -5 -5 -5 -5 -5 -5 -4 -4 -4 -4 -4 -4 -4 -4 -4 -4 -4 -4 -4 -4 -4 -5
-1 -1 -1 -2 -2 -3 -3 -4 -4 -5 -6 -6 -6 -6 -6 -6 -6 -6 -6 -6 -5 -5 -5 -5 -5 -5 -5 -5 -4 -4 -4 -4 -4 -4 -4 -4 -4 -4 -4 -4 -4 -5 -5
-1 -2 -2 -2 -3 -4 -4 -5 -5 -6 -6 -6 -7 -7 -6 -6 -6 -6 -6 -6 -6 -6 -6 -6 -5 -5 -5 -5 -5 -5 -5 -5 -5 -5 -5 -5 -5 -5 -5 -5 -5 -5 -5
-2 -2 -3 -3 -4 -4 -5 -6 -6 -6 -7 -7 -7 -7 -7 -7 -6 -6 -6 -6 -6 -6 -6 -6 -6 -5 -5 -5 -5 -5 -5 -5 -5 -5 -5 -5 -5 -6 -6 -6 -6 -6 -6
-3 -3 -3 -4 -5 -5 -6 -6 -7 -7 -7 -7 -7 -7 -7 -7 -7 -7 -7 -7 -7 -6 -6 -6 -6 -6 -6 -6 -6 -6 -6 -6 -6 -6 -6 -6 -6 -6 -6 -6 -6 -6 -6
-3 -4 -4 -5 -5 -6 -6 -7 -7 -7 -7 -7 -7 -7 -7 -7 -7 -7 -7 -7 -7 -7 -6 -6 -6 -6 -6 -7 -7 -7 -6 -6 -6 -6 -6 -6 -6 -6 -6 -6 -6 -6 -7
-4 -4 -5 -5 -6 -6 -7 -7 -7 -7 -7 -7 -7 -7 -7 -7 -7 -7 -7 -7 -7 -7 -7 -7 -7 -7 -7 -7 -7 -7 -7 -7 -7 -7 -7 -7 -7 -7 -6 -6 -7 -7 -7
-4 -5 -5 -6 -7 -7 -7 -8 -8 -8 -8 -8 -7 -7 -8 -8 -8 -8 -8 -7 -7 -7 -7 -8 -8 -8 -8 -8 -7 -7 -7 -7 -7 -7 -7 -7 -7 -7 -7 -7 -7 -7 -7
-5 -5 -6 -7 -7 -7 -8 -8 -8 -8 -8 -8 -8 -8 -8 -8 -8 -8 -8 -8 -8 -8 -8 -8 -8 -8 -8 -8 -8 -8 -8 -7 -7 -7 -7 -7 -7 -7 -7 -7 -7 -7 -7
-5 -6 -6 -7 -7 -8 -8 -8 -8 -8 -8 -8 -8 -8 -8 -8 -8 -8 -8 -8 -8 -8 -8 -8 -8 -8 -8 -8 -8 -8 -8 -8 -8 -8 -8 -8 -8 -8 -8 -8 -8 -8 -8
-6 -6 -7 -7 -8 -8 -8 -8 -9 -9 -9 -9 -9 -9 -9 -9 -9 -8 -8 -8 -8 -8 -8 -8 -8 -8 -8 -8 -8 -8 -8 -8 -8 -8 -8 -8 -8 -8 -8 -8 -8 -8 -8
-7 -7 -8 -8 -8 -8 -8 -9 -9 -9 -9 -9 -9 -9 -9 -9 -9 -9 -8 -8 -8 -8 -8 -8 -8 -8 -8 -8 -8 -8 -8 -8 -8 -8 -8 -8 -8 -8 -8 -8 -8 -8 -9
-7 -8 -8 -8 -8 -9 -9 -9 -9 -9 -9 -9 -9 -9 -9 -9 -9 -9 -9 -9 -8 -8 -8 -8 -8 -8 -8 -8 -8 -9 -9 -9 -9 -9 -9 -9 -9 -9 -9 -9 -9 -9 -9
-8 -8 -8 -9 -9 -9 -9 -10 -10 -10 -10 -10 -10 -9 -9 -9 -9 -9 -9 -9 -8 -8 -8 -8 -8 -8 -8 -8 -9 -9 -9 -9 -9 -9 -9 -9 -9 -9 -9 -9 -9 -9 -9
-8 -8 -9 -9 -9 -10 -10 -10 -10 -10 -10 -10 -10 -10 -10 -9 -9 -9 -9 -9 -9 -8 -8 -8 -8 -8 -8 -9 -9 -9 -9 -9 -9 -9 -9 -9 -9 -9 -9 -9 -10 -10 -10
-9 -9 -9 -10 -10 -10 -10 -10 -11 -10 -10 -10 -10 -10 -10 -10 -9 -9 -9 -9 -9 -9 -9 -8 -9 -9 -9 -9 -9 -9 -9 -9 -9 -9 -10 -10 -9 -9 -9 -10 -10 -10 -10
Wind_Speed
7 7 8 9 9 10 10 11 12 12 13 14 14 15 16 16 16 16 17 18 18 19 18 19 20 20 17 16 16 16 17 17 21 24 20 18 20 19 17 18 19 19 19
7 8 9 10 10 11 12 13 13 14 14 15 15 16 17 17 17 18 19 19 20 20 20 20 21 18 20 18 16 18 17 18 19 25 23 18 20 18 18 19 17 16 17
8 9 10 11 12 13 13 14 14 15 16 16 16 17 17 17 18 19 20 20 20 21 20 20 21 20 21 18 19 18 16 16 17 20 22 18 16 15 16 17 19 17 17
9 10 11 12 13 14 14 15 16 16 17 17 18 18 18 17 17 18 19 20 20 20 20 20 21 20 21 21 18 19 17 17 16 18 19 18 16 15 13 15 15 15 16
10 11 12 13 13 14 15 16 16 17 17 18 18 19 18 16 14 15 15 18 19 20 20 20 21 23 26 22 18 16 16 16 16 16 18 17 16 13 13 13 15 15 15
11 12 13 13 14 15 16 17 17 18 18 18 18 19 19 16 21 25 23 20 20 20 20 20 20 22 24 28 30 28 24 18 16 16 17 17 18 16 14 13 14 14 13
12 13 13 14 15 16 17 18 18 19 19 19 19 19 20 20 24 26 27 22 21 20 20 19 17 17 22 18 22 26 26 28 27 19 19 19 19 16 15 16 16 15 17
13 14 14 15 16 17 18 18 19 18 18 18 19 20 20 21 25 26 27 22 20 19 19 19 19 19 18 18 16 16 17 18 21 17 15 17 18 16 14 15 15 16 15
14 15 15 16 17 18 19 20 19 19 19 19 19 20 21 21 24 25 25 17 16 18 18 18 19 19 23 26 19 17 18 16 20 25 26 24 26 26 20 12 13 12 13
15 16 16 17 17 18 19 20 19 18 19 19 19 19 20 20 23 25 25 14 16 16 16 16 20 22 24 26 19 17 18 16 15 15 17 19 18 19 22 14 12 12 10
16 16 17 17 18 18 19 18 18 18 18 18 19 18 18 20 22 23 24 15 15 15 14 14 14 23 26 27 25 18 21 20 16 14 13 12 11 11 11 11 10 11 12
16 17 18 18 17 16 18 18 18 18 18 18 18 18 16 16 19 21 25 24 23 17 16 14 16 24 26 27 23 22 26 22 13 12 11 11 10 10 9 10 10 11 11
17 18 18 18 17 16 17 18 17 16 15 15 15 16 16 15 16 23 24 25 26 19 16 22 25 27 26 20 21 23 20 13 11 11 11 10 9 8 7 7 8 8 10
18 18 17 17 17 17 14 14 14 15 15 15 16 16 16 16 15 14 15 17 20 18 16 19 23 23 18 17 17 14 10 10 10 10 10 9 8 7 7 7 7 7 8
18 17 17 16 17 16 15 14 16 15 16 17 16 16 16 17 18 25 22 17 16 16 17 13 11 11 10 10 10 9 9 8 9 9 9 9 8 7 7 6 7 7 8
16 16 14 14 14 15 15 16 17 19 24 25 25 23 19 22 27 28 27 26 25 23 17 11 11 10 10 10 10 10 9 8 8 8 8 8 8 7 7 6 6 7 8
16 16 14 14 15 15 15 16 17 18 20 23 23 24 23 25 26 26 25 24 22 19 12 10 10 10 10 10 10 10 9 8 8 7 7 7 7 6 6 6 7 7 8
16 16 15 14 14 15 15 15 15 17 17 16 18 22 23 23 24 24 22 19 13 11 9 10 10 10 10 9 9 9 9 8 7 7 7 7 6 6 6 7 7 8 8
15 13 13 14 14 15 15 15 15 17 16 16 16 16 20 21 22 19 17 11 11 10 10 9 9 9 9 9 9 9 9 8 8 7 7 7 6 6 6 7 7 9 9
13 17 17 15 14 14 14 15 15 15 16 15 15 15 15 16 13 13 11 10 10 10 10 10 10 10 9 9 9 8 8 8 8 7 7 6 6 6 7 7 7 7 7
13 15 18 16 14 14 14 15 15 15 15 15 15 16 20 14 13 13 11 10 10 10 10 10 10 10 9 8 8 9 9 8 7 7 6 6 6 6 6 6 6 6 6
13 13 13 14 14 14 15 15 14 15 15 16 15 15 20 14 12 11 11 11 10 10 10 10 9 9 9 9 9 9 9 8 8 7 7 6 6 6 6 6 6 6 7
14 15 15 14 14 17 16 14 14 14 15 15 15 14 13 12 12 12 11 11 10 10 9 9 9 9 9 8 8 8 8 8 8 8 7 7 6 6 6 7 8 8 8
14 15 15 15 14 14 14 15 14 14 15 15 14 13 13 12 12 13 12 11 10 10 10 9 10 11 13 11 8 8 8 9 9 8 9 9 8 7 7 7 8 9 9
14 14 14 14 14 14 14 15 15 14 14 14 14 13 13 13 12 12 11 11 11 11 12 11 9 10 12 13 12 10 12 15 14 10 8 8 9 9 9 9 9 10 10
14 14 14 13 14 14 14 14 14 15 14 14 13 13 13 12 12 12 11 11 10 11 11 10 11 12 13 12 13 14 16 16 16 16 10 9 9 10 10 9 11 11 11
Wind_Direction
333 326 320 318 315 311 306 304 303 301 299 297 295 293 291 289 287 283 279 278 277 275 272 270 268 267 267 264 261 257 255 253 262 272 272 270 265 260 257 255 256 256 256
327 321 318 316 313 310 308 306 304 301 299 296 295 292 290 289 287 285 284 283 280 278 277 276 274 273 268 266 263 260 258 255 258 268 273 273 268 264 260 257 256 256 256
323 319 317 315 314 311 310 308 305 302 299 297 295 292 291 289 288 286 285 285 283 281 280 278 276 274 271 268 266 264 262 261 258 263 270 272 270 265 262 257 255 255 257
318 315 313 314 313 310 308 306 304 302 300 298 296 293 291 289 286 285 285 285 284 282 280 277 275 272 270 270 269 266 265 264 262 261 266 269 266 263 257 255 255 251 252
313 310 309 310 309 307 306 304 303 301 299 297 295 294 292 289 283 282 282 282 281 280 279 275 273 270 269 269 266 263 260 260 260 261 263 265 262 256 249 246 250 253 252
307 306 307 307 307 306 306 305 303 302 300 298 296 295 293 290 290 292 291 289 287 284 283 281 278 275 274 273 273 271 267 263 260 260 263 261 262 257 251 244 244 246 251
304 304 305 306 305 306 306 305 304 303 302 300 298 296 295 294 295 296 295 294 290 287 285 284 283 280 280 276 276 276 276 274 270 266 264 263 263 258 253 247 240 239 244
303 304 306 307 305 305 305 304 304 305 303 300 299 298 297 297 299 299 300 297 291 287 285 284 284 284 281 278 274 270 268 267 267 269 264 265 265 264 253 248 248 247 248
303 306 308 307 305 305 305 305 306 305 303 301 300 299 299 299 300 301 301 297 292 289 287 285 283 283 282 282 279 275 273 270 269 266 264 263 262 260 253 246 240 240 244
306 307 306 306 304 303 303 305 304 303 302 302 299 299 298 299 300 302 302 297 294 292 290 287 285 284 285 286 282 279 277 275 272 270 267 267 267 266 264 251 239 237 238
306 304 303 303 303 302 302 302 303 303 302 301 301 300 299 299 300 301 303 302 298 296 294 291 288 288 288 288 286 281 278 279 276 270 267 264 258 251 249 246 234 234 237
306 303 302 303 304 302 303 304 304 304 304 304 304 304 303 302 302 303 304 304 304 301 298 295 292 293 292 292 290 283 284 284 278 273 267 264 261 255 247 238 230 227 230
305 303 304 304 304 303 303 304 305 304 303 304 304 304 305 306 306 306 307 307 306 303 297 296 297 297 297 295 291 290 289 284 276 272 269 267 263 257 250 239 228 226 229
304 304 305 305 305 304 303 301 301 302 302 302 303 304 305 306 308 311 310 309 307 304 301 299 299 297 294 290 291 291 287 279 274 274 273 270 268 259 249 243 238 227 228
304 304 305 305 303 304 303 300 299 295 293 299 301 302 304 305 307 310 311 310 309 305 308 303 302 302 301 300 298 295 291 286 282 275 273 271 265 256 251 240 230 222 222
303 304 305 304 303 303 303 302 295 292 296 298 297 298 300 301 307 311 313 314 314 313 313 306 306 307 306 306 304 300 295 290 286 281 275 270 264 256 251 237 226 223 223
299 301 302 302 302 303 303 304 306 304 301 301 301 303 304 307 310 313 314 315 314 315 310 307 307 308 308 307 304 301 299 297 292 284 277 271 264 257 252 239 226 224 225
298 297 298 299 300 300 300 301 302 305 308 308 307 307 308 311 313 313 315 317 314 315 310 307 307 308 308 308 306 304 302 300 294 286 281 274 266 260 253 244 234 229 228
297 297 298 299 298 298 299 299 300 300 302 305 307 309 312 315 313 311 316 313 311 311 310 308 307 308 307 306 305 303 301 298 295 290 284 277 269 261 254 248 242 234 231
296 295 297 298 298 298 299 300 300 301 302 304 305 309 315 315 313 314 315 311 308 307 307 307 307 306 305 304 304 302 301 299 297 291 287 280 272 265 259 253 248 242 235
298 298 298 297 296 297 298 298 299 300 301 303 303 305 309 311 308 307 308 307 306 304 304 303 304 304 304 303 302 301 299 297 297 295 291 284 276 268 263 257 253 249 245
297 296 297 297 297 297 298 298 299 299 300 301 302 304 308 306 301 300 302 303 302 300 298 298 298 298 298 299 299 299 298 296 296 295 291 284 277 270 264 258 253 248 243
296 295 296 297 298 299 300 298 298 298 299 300 301 302 303 302 301 300 300 301 300 298 297 295 294 295 297 296 293 290 290 292 294 293 289 284 276 269 263 258 253 249 244
295 295 297 299 299 299 299 299 299 298 299 299 299 299 300 300 299 299 299 298 297 296 295 293 290 291 294 294 291 287 284 285 287 282 275 272 270 268 263 258 255 252 249
298 298 299 299 299 299 299 298 298 299 299 299 298 298 299 299 299 298 298 296 295 294 294 294 290 290 291 292 290 287 286 286 285 282 273 267 264 260 259 258 255 255 250
298 298 298 297 297 298 297 297 298 299 299 299 298 298 298 298 298 297 297 295 295 296 295 293 289 290 291 289 287 287 288 288 286 283 277 269 263 260 258 257 257 254 255
Height
1518 1516 1513 1510 1506 1503 1499 1495 1491 1487 1483 1478 1473 1469 1465 1460 1456 1452 1447 1443 1438 1434 1431 1427 1423 1420 1417 1414 1411 1408 1405 1402 1393 1382 1385 1387 1386 1384 1382 1381 1379 1378 1377
1514 1512 1508 1505 1501 1498 1494 1489 1485 1480 1475 1470 1465 1460 1456 1451 1447 1442 1437 1433 1428 1423 1420 1416 1412 1410 1406 1403 1400 1396 1394 1391 1387 1377 1372 1376 1376 1375 1373 1371 1370 1368 1367
1510 1507 1504 1500 1496 1492 1487 1483 1478 1473 1467 1462 1457 1451 1446 1441 1436 1432 1427 1422 1417 1413 1408 1404 1400 1398 1394 1391 1389 1385 1382 1380 1377 1371 1363 1364 1364 1365 1363 1361 1360 1358 1357
1506 1502 1499 1495 1490 1486 1481 1476 1470 1465 1459 1453 1448 1442 1436 1431 1426 1421 1416 1410 1405 1400 1396 1392 1389 1386 1382 1379 1377 1374 1372 1369 1366 1362 1356 1354 1354 1354 1353 1351 1349 1348 1347
1501 1497 1493 1489 1484 1479 1473 1468 1462 1456 1450 1444 1438 1432 1427 1421 1415 1410 1405 1399 1394 1388 1384 1381 1377 1374 1371 1369 1366 1362 1361 1358 1355 1351 1347 1344 1343 1343 1342 1341 1340 1339 1338
1496 1492 1487 1482 1477 1471 1465 1459 1453 1447 1441 1435 1429 1422 1416 1411 1406 1401 1396 1389 1384 1379 1374 1370 1366 1363 1360 1357 1355 1352 1351 1347 1343 1341 1337 1334 1332 1333 1333 1332 1331 1330 1328
1490 1485 1480 1475 1469 1464 1457 1451 1445 1439 1432 1426 1420 1413 1407 1401 1396 1391 1386 1380 1374 1369 1364 1360 1356 1353 1350 1347 1344 1341 1339 1336 1334 1332 1327 1324 1323 1323 1323 1322 1321 1319 1319
1484 1479 1474 1468 1462 1456 1449 1443 1437 1431 1424 1417 1411 1404 1398 1392 1387 1381 1376 1371 1365 1360 1356 1352 1348 1344 1341 1338 1334 1330 1327 1324 1323 1320 1317 1314 1314 1313 1313 1312 1311 1311 1311
1478 1472 1467 1461 1454 1448 1441 1435 1429 1422 1415 1408 1402 1395 1389 1383 1378 1373 1368 1362 1356 1352 1348 1344 1340 1335 1332 1329 1326 1321 1317 1314 1312 1310 1307 1305 1304 1303 1303 1302 1301 1302 1300
1471 1465 1460 1454 1447 1440 1434 1427 1421 1414 1406 1399 1393 1387 1381 1375 1370 1365 1361 1355 1349 1344 1339 1335 1331 1327 1324 1321 1317 1312 1308 1305 1303 1300 1298 1296 1294 1293 1293 1293 1292 1292 1292
1463 1458 1452 1446 1440 1433 1426 1419 1413 1405 1398 1391 1385 1379 1374 1368 1362 1358 1354 1349 1343 1337 1331 1327 1322 1319 1315 1311 1308 1304 1299 1297 1293 1291 1288 1286 1284 1283 1283 1283 1283 1284 1284
1456 1450 1444 1438 1432 1425 1418 1411 1405 1398 1390 1383 1377 1371 1366 1361 1356 1350 1346 1342 1336 1330 1324 1319 1314 1310 1306 1302 1298 1294 1291 1288 1285 1282 1279 1277 1276 1275 1274 1274 1274 1275 1276
1448 1442 1436 1430 1424 1418 1411 1404 1397 1391 1384 1377 1371 1364 1358 1353 1348 1344 1338 1333 1328 1323 1316 1311 1306 1301 1296 1292 1288 1285 1282 1279 1276 1273 1271 1269 1268 1267 1267 1266 1266 1267 1268
1440 1434 1428 1422 1415 1410 1403 1397 1390 1384 1378 1371 1365 1358 1352 1346 1341 1336 1330 1325 1319 1314 1308 1302 1297 1293 1288 1284 1280 1276 1273 1271 1268 1266 1264 1262 1262 1261 1260 1259 1259 1260 1260
1432 1426 1420 1414 1407 1401 1395 1390 1384 1377 1373 1366 1359 1353 1346 1339 1334 1330 1325 1318 1312 1307 1301 1295 1290 1286 1281 1277 1274 1270 1267 1264 1262 1260 1258 1256 1255 1254 1254 1253 1253 1254 1255
1425 1419 1413 1406 1400 1393 1386 1380 1375 1370 1364 1359 1353 1347 1340 1335 1328 1323 1317 1311 1306 1300 1295 1290 1285 1281 1277 1273 1269 1265 1262 1259 1257 1254 1252 1251 1250 1249 1248 1248 1248 1249 1250
1418 1412 1405 1399 1393 1386 1380 1372 1365 1359 1356 1350 1345 1339 1334 1327 1322 1316 1310 1305 1299 1295 1290 1285 1281 1277 1272 1268 1265 1261 1258 1255 1252 1250 1248 1246 1245 1244 1244 1244 1244 1244 1245
1410 1404 1398 1392 1386 1380 1373 1367 1360 1353 1346 1340 1336 1331 1326 1320 1315 1309 1304 1299 1293 1289 1285 1281 1277 1272 1268 1265 1261 1257 1254 1251 1249 1246 1244 1243 1241 1241 1240 1240 1240 1240 1241
1403 1397 1391 1385 1379 1373 1367 1361 1354 1348 1341 1335 1328 1323 1319 1313 1308 1303 1299 1294 1289 1285 1281 1277 1273 1269 1265 1261 1258 1254 1251 1248 1245 1243 1241 1239 1238 1237 1236 1236 1236 1236 1236
1395 1389 1384 1378 1372 1366 1360 1354 1348 1342 1336 1329 1324 1318 1312 1307 1302 1297 1294 1289 1285 1281 1277 1273 1269 1265 1261 1258 1254 1251 1247 1245 1242 1239 1237 1235 1234 1233 1232 1232 1231 1231 1231
1387 1381 1376 1370 1365 1359 1353 1347 1341 1336 1330 1324 1318 1313 1309 1303 1298 1293 1289 1284 1280 1276 1272 1268 1265 1261 1257 1254 1250 1247 1244 1241 1238 1236 1234 1232 1230 1229 1228 1227 1227 1227 1227
1379 1373 1368 1363 1357 1352 1346 1341 1335 1329 1323 1318 1311 1307 1302 1298 1293 1288 1284 1280 1276 1272 1268 1264 1260 1257 1253 1250 1247 1243 1240 1237 1235 1232 1230 1228 1226 1225 1224 1223 1222 1222 1221
1372 1366 1361 1356 1350 1344 1339 1333 1328 1322 1317 1311 1306 1301 1296 1292 1287 1283 1279 1274 1270 1267 1263 1259 1255 1252 1249 1245 1242 1239 1236 1233 1231 1228 1226 1224 1222 1220 1219 1218 1217 1216 1215
1364 1359 1354 1348 1343 1337 1332 1326 1321 1316 1310 1305 1300 1295 1291 1286 1281 1277 1273 1269 1265 1261 1258 1254 1250 1247 1244 1240 1237 1234 1231 1228 1226 1223 1221 1219 1217 1215 1214 1212 1211 1210 1209
1357 1351 1346 1340 1335 1330 1324 1319 1314 1309 1304 1299 1294 1289 1285 1280 1276 1271 1267 1264 1260 1256 1252 1249 1245 1241 1238 1235 1232 1228 1226 1223 1221 1218 1216 1214 1212 1210 1208 1206 1205 1203 1202
1349 1343 1338 1333 1327 1322 1317 1312 1306 1302 1297 1292 1287 1283 1279 1274 1270 1266 1262 1258 1254 1250 1247 1243 1240 1236 1232 1229 1226 1223 1220 1217 1215 1213 1211 1208 1206 1204 1202 1200 1198 1196 1195